BREEZE-M R/B, 36102

Orbit data source: Space-Track

BREEZE-M R/B, 36102 is space debris in HEO originally from a launch on Tue, 24 Nov 2009 UTC launched from the Tyuratam Missile And Space Complex (TTMTR). Debris objects in space refer to the collection of defunct objects orbiting the Earth. Examples of debris include non-operational satellites, rocket bodies, and fragments generated from explosions, collisions, or faulty payload assembly.

Loading next visibility...
Identifier
36102, 2009-065B
Orbit
HEO
Last TLE update
2 days ago
Origin
Manufacturer
Khrunichev
Mission
Spacecraft
Bus & Motor
BRIZ, Unknown motor
Mass
~1,600 kg wet, 1,600 kg dry
Launch date (UTC)
2009-11-24 (15 years ago)
Launch vehicle
Unknown
Launch site
Tyuratam Missile And Space Complex (TTMTR)
Object type
Payload
Rocket body
Debris
Shape & HBR
Cyl, 4 m
Radar Cross Section
14.451 m², Large (>1 m²)

Expand to show TLE details & history

TLE from 2 days ago
0 BREEZE-M R/B
1 36102U 09065B   25124.60035487 -.00000213  00000-0  00000-0 0  9996
2 36102  21.3757 302.6464 5873348 110.0650 349.0725  2.20877951124407
Epoch: 2025-05-04T14:24Z
Definitive object data (Epoch: 2025-05-04T14:24:30.66Z)
Latitude
18.96749°
Longitude
-75.23702°
Altitude
5,268.576 km
Speed
7.243 km/s
True Right ascension
00h 14m 27s
True Declination
18° 54' 10"
Sunlit
Object was in daylight at TLE epoch
Visualization TLE readout
Latitude
-10.18152°
Longitude
-163.85246°
Altitude
23,124.956 km
Speed
3.319 km/s
Apparent Right ascension
18h 46m 54s
Apparent Declination
-20° 07' 47"
Sunlit
Object is in daylight
Visualization observer readout
Local Sidereal Time
15:50:59
Azimuth
136.932° SSE
Elevation
17.3°
Doppler factor
1
Orbital elements
Apogee altitude
33,159.949 km
Perigee altitude
3,900.723 km
Semi-major axis
24,908.473 km
Eccentricity
0.5873348
Inclination
21.3757°
RAAN
302.6464°
Arg. of periapsis
110.065°
True anomaly
312.45006°
Mean anomaly
349.0725°
Eccentric anomaly
334.6811°
Mean motion
0.55211 °/min
BSTAR
Unknown
Orbital period
652.05 mins
Loading maneuver chart data...
Loading SW <> Apogee altitude chart data...
Loading historical data...
Loading historical data...
Loading historical data...
Loading historical data...
Loading historical data...
Loading historical data...
Loading historical data...
Other satellites on launch #65 in the year 2009 (2009-11-24 UTC)

BREEZE-M R/B Visibility forecast

Observer location: undefined°, undefined°

Span
Click to sort rows by Start time (UTC) header in descending order
Start Az.
Max El. time (UTC)
Max El. Az.
Max El.
End time (UTC)
End Az.
75 mins2025-05-06 07:53:45.042Z136.948° SSE2025-05-06 08:04:45.042Z135.489° SSE16.611°2025-05-06 09:08:45.042Z114.052° SE
39 mins2025-05-06 20:54:45.042Z257.165° W2025-05-06 21:10:45.042Z191.033° SSW31.158°2025-05-06 21:33:45.042Z130.633° SE
|